• Join FlightAware (Why Join?)
  • Login
  • US Flag GB Flag 
02:11 EST


 

Airport Tracker/Info


-or-


 

Live Flight TrackerFlight Track Log ✈ AAY846 ✈ 24-Jun-2014 ✈ KPIE - KPIA

Flight Track Log - Related Links

Times and Time Zones

All times are in EDT time to prevent confusion due to time zone crossing. See the AAY846 flight status page for this flight to view local times or setup timezone preferences in your user account.

Time Position Orientation Groundspeed Altitude Reporting Facility
EDT Latitude Longitude Course Direction KTS MPH feet Rate Location/Type
08:24 27.9000 -82.6833 180° South 169 194 600  Level Tampa TRACON
08:25 27.8667 -82.6833 180° South 178 205 1,600 1,380 Climbing Tampa TRACON
08:26 27.8000 -82.7000 192° South 272 313 3,000 1,560 Climbing Tampa TRACON
08:27 27.8500 -82.7667 310° West 282 325 5,300 2,400 Climbing Tampa TRACON
08:28 27.9167 -82.7667 360° North 279 321 7,800 2,100 Climbing Tampa TRACON
08:30 28.1039 -82.7678 360° North 318 366 11,800 2,040 Climbing Jacksonville Center
08:31 28.2072 -82.7692 359° North 365 420 14,200 2,220 Climbing Miami Center
08:32 28.3147 -82.7769 356° North 365 420 16,300 1,320 Climbing Jacksonville Center
08:33 28.4169 -82.7839 357° North 370 426 17,000 420 Climbing Jacksonville Center
08:34 28.5172 -82.8242 341° North 367 422 17,200 900 Climbing Jacksonville Center
08:35 28.6089 -82.8903 328° Northwest 367 422 18,900 1,560 Climbing Jacksonville Center
08:36 28.6903 -82.9517 327° Northwest 386 444 20,400 1,500 Climbing Jacksonville Center
08:37 28.7864 -83.0206 328° Northwest 394 453 22,000 1,440 Climbing Jacksonville Center
08:38 28.8844 -83.0964 326° Northwest 414 476 23,300 1,380 Climbing Jacksonville Center
08:39 28.9844 -83.1728 326° Northwest 425 489 24,800 1,380 Climbing Jacksonville Center
08:40 29.0803 -83.2608 321° Northwest 430 495 26,100 1,260 Climbing Jacksonville Center
08:41 29.1739 -83.3492 321° Northwest 435 501 27,400 1,140 Climbing Jacksonville Center
08:42 29.2717 -83.4400 321° Northwest 446 513 28,400 900 Climbing Jacksonville Center
08:43 29.3714 -83.5336 321° Northwest 452 520 29,300 840 Climbing Jacksonville Center
08:44 29.4711 -83.6272 321° Northwest 452 520 30,100 1,020 Climbing Jacksonville Center
08:45 29.5728 -83.7236 321° Northwest 457 526 31,400 900 Climbing Jacksonville Center
08:50 30.1258 -84.2131 339° North 455 524 36,000 720 Climbing FlightAware ADS-B (KTLH)
08:51 30.1989 -84.2460 338° Northwest 457 526 36,000  Level FlightAware ADS-B (KTLH)
08:51 30.2730 -84.2797 339° North 460 529 36,000  Level FlightAware ADS-B (KTLH)
08:52 30.3445 -84.3122 339° North 461 531 36,000  Level FlightAware ADS-B (KTLH)
08:53 30.4043 -84.3394 339° North 462 532 36,000  Level FlightAware ADS-B (KTLH)
08:53 30.4647 -84.3668 339° North 462 532 36,000  Level FlightAware ADS-B (KTLH)
08:54 30.5240 -84.3937 339° North 462 532 36,000  Level FlightAware ADS-B (KTLH)
08:54 30.5849 -84.4214 339° North 460 529 36,000  Level FlightAware ADS-B (KTLH)
08:55 30.6475 -84.4501 338° Northwest 459 528 36,000  Level FlightAware ADS-B (KTLH)
08:55 30.7224 -84.4845 338° Northwest 457 526 36,000  Level FlightAware ADS-B (KTLH)
08:56 30.7906 -84.5158 339° North 455 524 36,000  Level FlightAware ADS-B (KTLH)
08:56 30.8596 -84.5477 338° Northwest 455 524 36,000  Level FlightAware ADS-B (KTLH)
08:57 30.9387 -84.5842 338° Northwest 456 525 36,000  Level FlightAware ADS-B (KTLH)
08:58 30.9980 -84.6116 338° Northwest 456 525 36,000  Level FlightAware ADS-B (KTLH)
08:58 31.0664 -84.6434 338° Northwest 458 527 36,000  Level FlightAware ADS-B (KTLH)
08:59 31.1331 -84.6764 338° Northwest 449 517 36,000  Level Jacksonville Center
09:01 31.4042 -84.8028 338° Northwest 453 521 36,000  Level Atlanta Center
09:02 31.5206 -84.8575 338° Northwest 453 521 36,000  Level Atlanta Center
09:03 31.6414 -84.9144 338° Northwest 453 521 36,000  Level Atlanta Center
09:04 31.7578 -84.9719 337° Northwest 453 521 36,000  Level Atlanta Center
09:05 31.8764 -85.0244 339° North 453 521 36,000  Level Atlanta Center
09:06 31.9947 -85.0822 338° Northwest 453 521 36,000  Level Atlanta Center
09:07 32.1133 -85.1422 337° Northwest 453 521 36,000  Level Atlanta Center
09:08 32.2483 -85.1956 342° North 453 521 36,000  Level Atlanta Center
09:09 32.3669 -85.2536 338° Northwest 453 521 36,000  Level Atlanta Center
09:10 32.4872 -85.3094 339° North 453 521 36,000  Level Atlanta Center
09:11 32.6097 -85.3706 337° Northwest 459 528 36,000  Level Atlanta Center
09:12 32.7281 -85.4267 338° Northwest 459 528 36,000  Level Atlanta Center
09:13 32.8486 -85.4853 338° Northwest 464 534 36,000  Level Atlanta Center
09:14 32.9731 -85.5442 338° Northwest 470 541 36,000  Level Atlanta Center
09:15 33.0933 -85.6058 337° Northwest 470 541 36,000  Level Atlanta Center
09:16 33.2136 -85.6628 338° Northwest 470 541 36,000  Level Atlanta Center
09:22 33.9573 -86.0292 338° Northwest 462 532 36,000  Level FlightAware ADS-B (KMDQ)
09:24 34.1890 -86.1447 338° Northwest 459 528 36,000  Level FlightAware ADS-B (KMDQ)
09:25 34.3008 -86.2005 338° Northwest 459 528 36,000  Level FlightAware ADS-B (KMDQ)
09:28 34.6078 -86.3549 337° Northwest 460 529 36,000  Level FlightAware ADS-B (KMDQ)
09:29 34.6902 -86.3964 337° Northwest 460 529 36,000  Level FlightAware ADS-B (KMDQ)
09:30 34.8070 -86.4558 337° Northwest 454 522 36,000  Level FlightAware ADS-B (KMDQ)
09:30 34.8765 -86.4912 337° Northwest 452 520 36,000  Level FlightAware ADS-B (KMDQ)
09:31 34.9866 -86.5474 337° Northwest 452 520 36,000  Level FlightAware ADS-B (KMDQ)
09:32 35.0592 -86.5844 337° Northwest 449 517 36,000 -60 Level FlightAware ADS-B (KMDQ)
09:33 35.1745 -86.6433 337° Northwest 450 518 35,900  Descending FlightAware ADS-B (KMDQ)
09:34 35.2940 -86.7047 337° Northwest 452 520 36,000 60 Climbing FlightAware ADS-B (KMDQ)
09:34 35.3731 -86.7455 337° Northwest 454 522 36,000  Level FlightAware ADS-B (KMDQ)
09:35 35.4425 -86.7812 337° Northwest 455 524 36,000  Level FlightAware ADS-B (KMDQ)
09:36 35.5177 -86.8200 337° Northwest 456 525 36,000  Level FlightAware ADS-B (KMDQ)
09:37 35.6136 -86.8696 337° Northwest 456 525 36,000  Level FlightAware ADS-B (KMDQ)
09:37 35.6901 -86.9095 337° Northwest 456 525 36,000  Level FlightAware ADS-B (KMDQ)
09:38 35.7639 -86.9480 337° Northwest 457 526 36,000  Level FlightAware ADS-B (KMDQ)
09:39 35.8585 -86.9974 337° Northwest 456 525 36,000 240 Level FlightAware ADS-B (KMDQ)
09:39 35.9542 -87.0489 337° Northwest 455 524 36,400 600 Climbing Indianapolis Center
09:40 36.0747 -87.1117 337° Northwest 456 525 37,100 720 Climbing Indianapolis Center
09:42 36.1947 -87.1756 337° Northwest 457 526 37,900 420 Climbing Indianapolis Center
09:43 36.3161 -87.2389 337° Northwest 459 528 38,000  Climbing Indianapolis Center
09:44 36.4358 -87.3017 337° Northwest 459 528 38,000  Level Indianapolis Center
09:45 36.5542 -87.3647 337° Northwest 458 527 38,000  Level Indianapolis Center
09:46 36.6728 -87.4272 337° Northwest 458 527 38,000  Level Indianapolis Center
09:47 36.7906 -87.4908 337° Northwest 457 526 38,000  Level Indianapolis Center
09:48 36.9092 -87.5539 337° Northwest 457 526 38,000  Level Indianapolis Center
09:49 37.0275 -87.6172 337° Northwest 457 526 38,000  Level Indianapolis Center
09:50 37.1656 -87.6928 336° Northwest 457 526 38,000  Level Indianapolis Center
09:51 37.2828 -87.7564 337° Northwest 457 526 38,000  Level Indianapolis Center
09:52 37.4011 -87.8211 337° Northwest 457 526 38,000  Level Indianapolis Center
09:53 37.5233 -87.8875 337° Northwest 457 526 38,000  Level Indianapolis Center
09:54 37.6372 -87.9486 337° Northwest 457 526 38,000  Level Indianapolis Center
09:55 37.7553 -88.0139 336° Northwest 457 526 38,000  Level Indianapolis Center
09:56 37.8761 -88.0814 336° Northwest 457 526 38,000  Level Indianapolis Center
09:57 37.9925 -88.1458 336° Northwest 457 526 38,000 -240 Level Indianapolis Center
09:58 38.1106 -88.2117 336° Northwest 457 526 37,600 -540 Descending Indianapolis Center
09:59 38.2514 -88.2903 336° Northwest 458 527 36,900 -1,200 Descending Kansas City Center
10:00 38.3711 -88.3575 336° Northwest 460 529 35,100 -1,140 Descending Kansas City Center
10:01 38.4900 -88.4242 336° Northwest 461 531 34,600 -720 Descending Kansas City Center
10:02 38.6092 -88.4914 336° Northwest 462 532 33,600 -960 Descending Kansas City Center
10:03 38.7286 -88.5606 336° Northwest 466 536 32,600 -1,020 Descending Kansas City Center
10:04 38.8639 -88.6383 336° Northwest 466 536 31,500 -1,020 Descending Kansas City Center
10:05 38.9819 -88.7047 336° Northwest 466 536 30,600 -960 Descending Kansas City Center
10:06 39.0969 -88.7697 336° Northwest 461 531 29,500 -1,500 Descending Kansas City Center
10:07 39.2097 -88.8350 336° Northwest 453 521 27,600 -1,980 Descending Kansas City Center
10:08 39.3200 -88.8978 336° Northwest 443 510 25,500 -2,100 Descending Kansas City Center
10:09 39.4381 -88.9669 336° Northwest 431 496 23,300 -1,260 Descending Kansas City Center
10:11 39.5389 -89.0258 336° Northwest 408 470 23,000 -480 Descending Kansas City Center
10:12 39.6383 -89.0822 336° Northwest 395 455 22,300 -1,500 Descending Kansas City Center
10:13 39.7364 -89.1408 335° Northwest 392 451 20,000 -2,820 Descending Kansas City Center
10:14 39.8544 -89.2100 336° Northwest 391 450 16,500 -2,820 Descending Kansas City Center
10:15 39.9531 -89.2681 336° Northwest 390 449 14,200 -1,980 Descending Kansas City Center
10:16 40.0467 -89.3233 336° Northwest 377 434 12,500 -1,620 Descending Kansas City Center
10:17 40.1342 -89.3761 335° Northwest 355 409 11,000 -960 Descending Kansas City Center
10:17 40.1806 -89.4033 336° Northwest 332 382 11,000  Level Chicago Center
10:18 40.2544 -89.4394 340° North 295 339 11,000 -1,140 Level Chicago Center
10:19 40.3281 -89.4700 342° North 284 327 8,700 -2,520 Descending Chicago Center
10:20 40.4178 -89.5094 341° North 283 326 5,800 -2,460 Descending Chicago Center
10:21 40.4867 -89.5400 341° North 275 316 3,600 -1,680 Descending Chicago Center
10:22 40.5539 -89.5703 341° North 265 305 2,400 -720 Descending Chicago Center
10:24 40.6061 -89.5961 339° North 227 261 2,200 -540 Descending Chicago Center
10:25 40.6353 -89.6450 308° West 192 221 1,400 -780 Descending Chicago Center
10:26 40.6583 -89.6867 306° West 163 188 700 -720 Descending Chicago Center
10:28 40.6500 -89.6833 143° Southeast  Level FlightAware Approximate